Location: Altenhof
(50.2418°N, 10.8789°E)
Time: 04:35:03
(UTC+00:00)

Cosmos 1340 - Pass Details

Date: 18 February 2020
Orbit: 501 x 506 km, 81.2° (Epoch: 02 April)

Event Time Altitude Azimuth Distance (km) Brightness Sun altitude
Rises 05:23:49 0° 350° (N) 2,614 6.1 -10.1°
Reaches altitude 10° 05:25:59 10° 354° (N) 1,723 5.2 -9.8°
Maximum altitude 05:29:44 63° 76° (ENE) 567 3.2 -9.2°
Drops below altitude 10° 05:33:27 10° 158° (SSE) 1,707 5.8 -8.6°
Sets 05:35:34 0° 162° (SSE) 2,586 6.6 -8.2°
